Theta_e
333 333 333 334 332 333 333 333 333 332 333 334 335 334 332 332 333 335 334 331 328 328 328 328 328 328 328 328 329 330 330 329 328 328 328 326 323 322 321 318 316 316 317 318 318 318 320 322 323 323 323 325 325 325 330 334 334 333 332 331 329 328
334 333 334 334 334 334 334 334 332 331 333 334 334 333 333 333 334 334 330 327 327 328 329 328 329 329 329 329 329 329 329 329 329 328 328 328 324 323 322 320 318 316 316 317 317 318 319 321 321 323 323 322 324 323 326 332 334 333 332 329 328 327
335 334 333 334 333 334 334 333 332 331 332 334 334 333 333 334 334 332 328 327 328 329 329 329 330 330 330 330 330 328 329 329 329 328 329 328 324 324 323 321 320 318 318 320 321 321 323 324 322 322 321 321 323 324 328 332 332 333 333 331 330 328
336 334 334 333 333 334 333 333 332 329 331 333 333 333 334 333 332 330 328 328 329 329 330 330 331 331 331 330 329 327 328 329 329 329 329 328 325 324 324 322 321 320 322 326 328 329 330 331 329 324 320 321 325 328 333 333 331 334 333 331 331 329
336 335 334 333 332 333 333 334 331 329 331 333 333 334 333 332 330 328 328 328 328 328 328 330 329 329 330 330 329 329 329 330 330 330 329 329 326 325 324 323 322 321 325 329 331 332 332 332 332 330 324 325 331 333 335 333 331 333 332 330 330 329
335 334 334 333 332 332 333 333 331 329 331 332 332 332 331 329 329 328 328 327 327 327 327 328 328 328 330 331 330 330 331 330 330 330 330 329 329 328 326 326 325 324 327 330 331 332 331 331 332 332 330 331 334 334 334 333 332 333 333 332 331 329
335 334 333 333 333 332 332 333 331 331 331 330 331 331 329 329 328 329 328 327 326 326 326 328 328 329 330 330 329 329 330 329 329 330 330 330 330 331 329 329 330 329 329 331 331 331 330 331 330 330 331 331 333 334 333 333 332 332 333 332 330 330
336 333 332 331 332 332 331 333 332 331 331 329 330 330 329 329 328 328 329 327 325 326 327 328 329 329 329 329 329 329 329 331 331 330 330 329 329 330 329 328 329 329 329 329 330 329 328 329 329 329 330 330 331 332 332 332 331 332 332 331 331 330
335 333 331 330 330 332 332 331 330 330 331 329 329 329 329 330 329 328 329 327 324 325 327 329 330 330 330 330 329 329 329 330 331 329 329 329 328 328 327 327 326 327 328 329 329 327 326 327 328 329 330 329 329 330 331 332 331 331 331 330 331 331
335 334 332 331 330 331 330 330 330 331 332 330 329 330 330 330 329 328 328 326 325 325 327 329 330 330 331 330 329 329 328 328 328 328 328 328 328 327 327 327 326 327 327 329 328 327 326 326 328 329 329 329 329 329 331 332 331 331 331 330 331 330
334 334 332 331 330 329 329 331 332 331 331 330 328 329 329 329 329 329 328 327 327 326 326 330 331 330 330 329 328 328 326 326 327 326 326 327 328 327 328 327 327 327 327 328 327 326 327 327 329 330 328 328 329 329 329 331 331 331 331 331 331 330
334 335 332 330 330 329 330 331 330 330 329 329 328 328 329 329 329 330 330 328 328 325 325 329 331 331 331 329 328 326 324 325 326 325 325 327 328 328 327 326 327 326 327 328 326 326 327 328 329 329 327 328 328 328 329 330 329 330 331 331 331 330
334 334 332 330 330 329 330 330 329 328 328 328 328 328 328 329 329 330 329 327 327 329 329 329 330 330 331 331 330 328 327 326 325 324 325 326 326 327 326 326 327 327 327 327 326 327 328 328 329 329 327 327 328 327 328 329 328 329 330 330 331 331
333 333 332 331 329 328 328 329 328 327 327 327 327 329 328 329 328 328 329 328 330 332 331 330 330 330 330 330 330 330 329 328 326 324 323 324 325 326 326 326 327 328 327 326 326 327 328 329 330 329 328 327 328 328 327 328 328 328 329 330 330 330
332 332 331 331 330 329 329 330 329 327 328 328 329 330 329 330 328 329 332 330 330 332 330 330 331 330 330 330 329 329 329 329 328 326 325 324 325 326 326 326 327 328 327 326 327 328 327 329 328 328 328 327 327 328 327 327 328 328 328 329 330 330
332 332 330 330 331 332 331 331 330 329 329 329 329 330 330 331 330 331 331 329 328 328 328 329 330 329 330 331 330 329 328 329 329 328 327 326 326 326 326 326 327 327 327 326 327 327 327 327 327 326 328 327 327 329 328 327 328 328 327 329 330 330
333 333 331 327 330 332 331 330 330 329 329 330 330 329 329 329 330 330 330 330 328 326 327 329 328 328 329 330 330 329 329 329 329 329 328 327 327 326 326 327 326 326 326 325 326 327 327 327 326 326 328 327 327 328 326 326 329 328 326 328 328 329
334 335 331 326 328 330 329 328 329 329 329 329 330 330 330 330 330 329 329 329 328 326 327 329 328 327 328 328 329 328 328 329 329 328 328 327 327 328 328 327 326 326 325 324 325 326 327 326 326 327 327 326 327 329 327 327 330 330 327 326 326 328
334 334 332 330 329 329 329 329 328 327 328 330 331 331 331 331 330 330 329 327 324 322 324 325 326 327 327 328 329 328 328 329 328 328 327 327 327 328 327 326 326 326 325 324 323 325 326 326 325 326 327 327 329 330 329 328 329 330 330 329 327 327
334 334 333 333 331 331 331 329 328 328 328 331 331 330 330 329 329 330 329 326 322 319 320 321 323 326 327 327 327 328 328 328 328 328 327 326 327 328 328 326 325 325 324 323 323 324 326 326 325 326 326 328 328 327 328 329 329 330 330 330 328 326
334 335 334 333 331 330 329 326 327 328 328 330 329 329 330 329 330 329 327 328 326 321 319 319 321 324 326 327 328 328 328 327 327 328 328 327 327 327 328 327 326 325 325 325 325 325 326 325 325 326 327 327 327 326 327 328 329 330 329 329 328 326
334 333 333 331 329 328 324 322 325 326 326 328 328 329 329 328 326 321 320 323 323 321 320 317 318 320 323 326 327 327 327 327 326 326 327 327 328 328 327 328 327 326 326 326 326 326 326 326 326 327 327 326 326 327 327 327 328 329 328 328 328 327
333 329 328 328 325 323 321 322 326 327 327 327 327 330 328 325 320 314 315 318 319 323 324 320 319 322 324 324 324 325 325 326 326 325 327 327 327 328 327 328 327 326 327 327 326 326 326 326 327 327 327 327 327 327 327 326 326 328 327 327 328 327
330 326 325 326 323 322 323 327 329 329 328 328 329 329 325 322 322 321 322 321 318 323 327 324 324 326 323 318 320 324 324 325 326 326 326 325 326 327 326 327 326 326 327 327 327 327 326 325 326 326 327 328 327 326 327 327 326 326 326 327 328 328
325 323 325 326 324 324 327 328 329 329 330 330 328 324 322 322 323 324 323 319 318 324 326 324 326 325 318 311 314 320 323 324 324 326 327 326 327 327 327 326 325 326 327 328 327 327 327 326 326 326 327 328 326 326 327 327 326 326 327 327 328 328
323 322 325 326 324 325 326 325 328 330 329 327 322 321 323 322 323 324 322 320 322 326 326 325 326 322 315 312 314 318 324 325 322 325 327 327 328 328 328 327 326 327 327 326 327 327 327 327 326 326 327 327 327 327 326 326 327 328 327 328 328 327
321 323 324 323 322 322 322 319 320 324 324 321 321 324 325 323 323 324 322 322 322 323 325 325 324 320 317 318 319 321 326 325 323 323 323 324 326 326 326 326 327 327 325 324 326 326 326 327 326 326 325 326 326 327 326 326 328 328 327 327 328 327
320 322 322 321 320 320 319 313 313 320 323 323 326 326 325 325 324 321 319 320 321 323 325 325 324 324 322 322 323 324 325 325 324 323 323 322 323 323 323 323 324 325 325 324 325 325 325 326 326 326 325 325 325 326 327 327 328 327 326 326 327 327
320 321 320 320 320 319 317 313 314 323 327 327 328 325 321 322 320 317 319 322 324 325 325 324 324 325 324 323 323 323 324 324 324 323 323 323 321 321 323 323 323 324 325 325 324 324 325 325 326 326 325 326 326 326 326 326 327 327 326 326 327 326
319 319 320 320 320 318 316 315 319 327 328 327 327 321 318 317 315 319 324 325 324 324 324 324 324 323 324 324 323 322 323 323 323 323 323 323 322 322 322 322 322 322 324 324 324 324 325 325 327 326 326 326 326 325 325 325 326 326 325 325 326 326
319 319 320 321 319 316 315 317 323 327 328 328 324 318 318 315 313 319 324 323 322 323 324 324 322 321 321 323 323 323 322 322 322 323 323 323 323 322 321 320 320 320 322 322 322 324 325 326 326 325 325 325 324 324 325 325 325 325 324 324 325 325
320 321 321 321 319 317 318 321 324 326 328 326 318 314 317 313 312 318 322 322 324 325 324 322 318 316 316 319 320 321 321 320 321 323 322 321 321 319 319 318 318 317 318 318 320 323 325 325 324 323 323 323 323 324 325 324 324 324 323 323 324 324
320 321 320 320 320 319 322 324 323 324 325 320 313 311 313 312 315 320 322 324 325 324 323 321 317 314 316 318 319 319 318 315 316 318 319 319 319 317 317 317 315 313 313 314 315 318 322 323 322 320 320 320 321 322 322 322 323 323 323 323 323 323
321 322 320 320 321 320 321 322 321 318 316 313 309 310 312 315 319 322 322 324 324 323 323 321 315 313 315 315 315 315 313 309 309 311 315 318 319 318 317 315 311 308 308 308 309 310 315 318 318 317 317 317 317 318 318 319 321 323 323 322 321 322
323 323 320 320 321 321 320 320 319 314 310 309 309 311 317 319 321 323 321 322 324 324 323 320 313 311 311 309 307 308 307 306 307 307 311 315 316 315 313 310 308 307 307 308 306 306 309 313 315 315 315 314 314 315 316 317 319 321 321 321 320 319
324 323 321 321 322 323 320 318 320 315 311 311 311 314 320 320 320 321 321 322 323 323 322 318 312 309 308 306 306 306 305 306 306 307 310 311 310 310 307 306 307 308 308 308 307 306 306 309 312 315 316 315 313 313 314 316 318 320 319 319 319 319
326 323 322 322 323 323 320 318 321 319 316 316 313 315 320 318 316 319 321 323 323 322 321 317 310 308 307 306 307 306 305 305 306 308 311 309 307 306 305 305 306 305 305 306 305 305 305 307 310 313 315 314 312 311 311 311 315 318 318 318 318 318
Wind_Speed
22 19 18 21 21 19 17 16 16 16 15 14 13 13 13 12 11 12 12 11 10 10 9 8 7 6 6 5 5 5 5 5 4 4 3 3 2 1 2 2 3 4 4 4 4 5 7 7 7 6 7 9 9 11 11 10 7 8 8 9 7 4
21 18 19 21 19 17 17 17 17 16 16 16 15 15 14 12 12 13 12 11 10 10 9 8 7 6 6 5 6 6 5 6 5 5 4 4 3 2 1 2 3 4 5 6 5 6 6 5 7 7 8 9 9 9 10 10 7 8 11 11 6 4
20 18 20 20 17 17 18 18 18 16 16 17 17 15 14 13 13 13 12 11 10 9 8 8 6 6 6 5 6 6 6 6 5 5 4 4 4 3 2 2 3 4 6 7 6 6 5 2 3 7 8 8 10 10 9 10 9 9 13 11 7 4
20 21 21 19 16 16 17 18 18 17 17 17 17 15 14 15 14 13 12 11 10 8 8 7 6 5 5 5 6 6 6 6 5 5 4 5 5 4 3 2 2 4 5 7 8 5 4 2 5 3 8 9 7 7 7 9 8 10 13 9 8 6
20 20 21 19 17 17 16 17 18 17 17 16 15 15 15 14 14 13 12 10 9 9 8 7 6 6 6 6 7 6 6 5 5 5 5 6 5 5 4 3 3 4 4 6 8 4 2 5 8 5 5 7 4 5 6 7 9 12 13 10 9 6
21 19 19 20 19 18 17 17 18 17 17 16 15 16 15 13 13 13 11 10 9 9 8 7 7 8 7 7 7 7 6 6 6 7 7 7 6 6 6 5 4 3 3 4 5 2 3 6 8 6 6 6 6 8 9 9 11 14 14 11 9 7
21 20 20 20 18 18 17 17 18 17 17 16 15 14 14 14 13 13 11 10 10 9 9 9 9 8 8 8 8 8 7 7 7 8 8 8 7 7 7 6 5 4 4 4 5 5 6 6 7 8 7 8 8 9 11 12 12 13 12 11 10 8
20 20 20 19 17 17 18 17 18 18 16 16 15 13 13 14 14 14 11 10 12 12 11 11 10 9 10 8 8 9 8 7 7 8 9 10 9 8 8 7 7 6 6 7 7 6 7 7 8 9 8 9 9 7 10 13 13 12 11 11 10 9
21 22 20 19 18 17 18 17 17 17 16 17 16 14 13 14 13 13 12 11 13 14 12 12 12 11 10 9 9 9 8 7 7 8 9 10 10 9 9 9 8 8 8 7 6 6 8 9 7 8 9 9 9 9 10 11 11 12 11 10 10 9
21 22 20 19 19 18 17 17 17 16 15 16 15 13 13 14 13 11 12 12 13 14 13 12 12 11 10 8 9 8 8 8 8 8 9 10 10 11 10 10 9 9 9 7 6 6 7 9 8 6 7 8 9 11 12 11 10 11 11 10 9 8
19 20 20 19 19 17 17 16 16 15 13 13 13 12 12 12 11 9 10 12 13 13 13 12 12 12 11 9 9 9 9 9 9 8 8 10 11 12 12 12 10 9 8 7 7 6 6 8 9 8 8 9 11 12 13 13 11 11 11 9 8 7
22 20 19 19 18 18 17 16 14 13 12 12 11 10 10 10 9 8 8 10 11 12 13 13 12 12 11 10 9 10 11 9 9 9 8 9 11 12 13 12 9 8 8 6 6 6 5 6 9 10 9 10 10 11 12 12 11 11 11 9 8 7
20 19 18 18 17 17 16 14 12 11 11 11 9 7 8 8 8 8 8 8 10 12 13 13 12 13 11 10 8 10 11 10 9 9 9 10 11 12 12 11 9 9 8 6 5 6 6 6 8 8 8 9 8 8 10 10 9 10 9 7 6 5
19 19 18 17 17 15 13 13 11 10 9 8 7 5 6 7 6 6 6 7 8 9 9 9 10 11 11 10 8 9 10 11 10 9 10 10 11 11 10 11 10 9 8 6 6 7 8 7 7 7 7 8 7 6 9 10 8 8 7 5 5 4
20 19 18 19 17 15 13 13 11 10 9 7 6 5 4 5 2 2 3 3 4 5 4 5 6 7 9 9 8 8 9 10 9 9 11 10 10 10 10 11 10 8 7 6 5 6 7 6 6 6 6 7 7 7 6 7 7 7 7 5 4 5
21 21 22 21 18 16 13 12 11 10 9 7 7 5 4 4 4 3 3 3 4 4 3 3 4 5 7 7 7 8 8 8 8 9 9 9 9 9 9 9 8 6 5 5 5 5 5 6 6 6 5 6 7 8 5 2 3 3 6 6 5 6
21 23 24 19 16 15 12 12 12 10 9 8 7 6 4 3 4 3 3 4 4 3 3 3 2 2 4 5 6 6 7 7 8 8 7 8 8 9 8 7 6 5 5 5 5 5 5 6 6 5 4 5 5 5 3 3 6 7 7 8 5 5
18 19 22 19 14 13 12 12 11 10 10 10 8 6 5 4 3 2 2 4 4 4 2 2 2 2 2 3 4 5 6 7 7 7 7 7 7 7 7 6 5 5 5 5 5 5 5 6 6 5 4 4 3 4 4 2 2 4 5 7 4 3
15 14 19 20 17 14 13 12 10 9 11 10 7 6 5 4 3 2 3 3 4 4 3 2 3 3 3 2 2 3 4 5 6 6 5 5 5 5 5 5 5 5 4 4 5 5 5 5 6 5 5 4 3 4 5 3 2 1 1 4 4 4
14 12 15 17 17 16 14 12 11 10 10 8 6 7 6 3 3 4 3 2 3 3 2 2 2 2 3 2 1 2 2 4 4 4 4 5 5 4 4 4 4 4 4 3 4 5 6 5 5 5 5 4 3 4 5 3 4 3 1 2 3 5
14 13 14 15 14 15 14 13 12 10 10 8 6 8 7 5 6 5 5 4 4 3 3 4 4 2 2 2 1 3 3 2 2 3 3 4 5 3 3 3 3 3 3 4 4 5 5 5 5 4 3 4 6 5 4 3 3 3 1 1 3 6
14 13 14 15 15 14 13 12 11 9 9 6 5 5 5 7 6 5 6 6 5 5 3 5 5 3 2 2 2 3 3 3 3 2 2 3 4 3 3 3 3 3 4 5 5 5 4 2 2 3 2 4 6 6 4 3 2 1 1 1 3 7
14 15 16 17 15 15 13 12 11 10 8 5 6 6 5 4 3 2 4 4 5 7 6 6 6 5 3 2 2 2 2 3 3 3 3 2 2 2 3 4 4 4 5 6 5 4 2 2 2 3 4 3 3 4 3 2 2 2 3 3 4 7
17 18 19 18 16 15 15 15 13 9 8 7 9 9 5 4 4 4 4 2 4 7 7 7 7 4 2 2 3 2 1 2 4 4 3 4 3 3 3 3 3 4 5 5 5 4 3 3 4 4 5 3 3 3 2 2 3 3 4 5 5 7
20 20 20 19 17 16 16 17 14 9 9 9 9 7 5 4 5 3 2 1 3 5 5 7 8 4 2 3 3 3 3 2 3 4 5 6 5 4 5 4 3 3 4 4 4 4 3 3 5 5 5 3 2 2 1 1 3 3 4 5 5 6
22 22 20 19 18 16 15 15 12 8 7 6 5 5 4 3 4 2 2 1 3 4 5 6 5 4 6 7 5 6 6 3 3 5 5 5 6 6 4 4 5 5 4 3 3 2 3 2 3 5 6 5 2 3 4 4 4 4 5 6 6 6
22 22 21 19 18 15 13 13 10 6 5 4 3 4 4 4 4 5 5 3 3 4 5 5 3 3 6 8 8 10 9 5 5 6 5 4 7 8 5 4 5 5 5 5 3 3 5 3 2 3 4 5 3 2 5 4 4 4 5 7 7 6
23 22 20 17 15 12 11 12 11 8 5 4 5 7 7 7 7 8 6 3 3 4 5 4 5 6 5 6 8 9 10 9 7 5 5 4 5 7 6 5 6 6 5 5 4 4 6 5 4 4 3 3 3 2 3 3 3 4 5 9 10 9
22 20 19 16 13 13 13 13 12 10 6 8 11 11 9 8 8 7 5 5 5 5 5 6 7 7 6 6 5 6 9 11 9 6 5 4 4 6 7 6 7 8 7 7 6 5 6 6 5 5 5 4 4 3 3 3 4 5 5 9 11 12
22 19 19 18 18 19 18 15 12 11 11 13 13 11 9 10 9 7 6 7 8 6 5 6 8 9 9 8 5 5 7 9 10 9 7 6 6 6 6 6 7 7 8 9 9 8 8 8 7 8 8 7 5 4 4 3 4 6 6 9 11 14
24 24 23 22 23 24 21 16 14 14 14 15 14 11 10 10 9 9 7 7 6 5 5 6 7 8 10 12 9 6 6 8 11 11 9 9 8 7 7 7 8 8 8 8 10 11 11 11 11 11 11 11 11 10 8 8 7 7 10 14 16 17
29 29 27 26 26 26 22 18 18 17 17 16 14 13 12 10 9 8 7 6 5 5 5 5 4 5 8 10 10 8 7 9 12 12 12 11 9 8 8 9 8 8 8 9 11 12 14 16 15 14 13 13 13 13 13 11 10 11 13 14 15 17
33 30 27 28 28 26 24 21 20 19 18 18 15 13 12 10 9 7 7 7 6 6 4 4 3 4 6 8 8 8 7 9 10 11 14 13 10 8 9 10 9 8 8 9 11 11 13 16 16 15 13 12 13 12 12 11 11 12 14 14 14 15
32 29 28 30 28 26 26 23 21 20 19 18 16 13 11 10 9 8 8 8 7 6 6 6 5 5 7 7 7 8 8 8 9 9 13 15 13 10 9 10 9 9 10 10 10 10 11 15 17 16 13 13 15 13 11 11 9 10 13 15 15 15
29 30 32 32 30 28 27 25 23 21 20 19 16 13 11 10 9 9 8 8 8 8 9 8 7 7 7 6 6 8 7 8 8 9 11 13 13 11 10 11 12 13 13 13 12 11 13 15 18 18 14 12 14 15 14 13 13 14 13 13 12 10
30 32 34 34 32 30 29 27 24 21 20 19 17 14 12 11 11 11 10 10 9 10 10 9 9 8 7 5 6 6 6 6 7 8 9 8 9 10 10 11 12 12 13 12 12 12 13 16 17 18 15 12 13 14 13 12 14 17 15 11 8 5
33 35 36 36 34 31 29 27 24 21 19 19 17 16 14 13 13 13 12 11 11 12 12 10 9 8 7 6 6 5 5 6 7 7 8 7 8 9 9 10 11 11 11 11 12 12 12 13 15 15 14 12 12 13 12 11 14 15 14 11 8 5
Wind_Direction
165 169 168 166 167 168 166 166 169 167 170 177 176 171 171 171 164 158 157 158 158 161 164 162 164 165 172 185 190 194 197 203 201 195 198 193 180 126 89 85 102 127 156 179 184 187 199 206 206 200 192 182 164 154 138 115 156 209 234 237 242 258
167 173 174 171 172 171 167 170 170 166 170 172 171 172 172 172 166 161 160 161 163 164 165 168 172 174 183 194 203 210 216 221 221 212 205 204 202 182 138 114 109 118 136 155 165 165 171 198 210 203 196 187 177 177 169 142 156 216 241 250 259 276
174 175 176 175 173 168 163 166 166 164 170 171 170 173 170 169 168 162 162 165 167 170 170 173 177 179 186 201 210 214 225 229 231 228 210 207 209 205 189 139 125 125 129 136 146 153 125 92 223 208 205 191 182 186 182 158 159 222 241 252 262 270
179 172 175 177 173 167 163 163 160 160 171 173 170 170 165 165 168 162 165 169 169 177 180 178 178 184 193 203 213 215 222 227 233 235 222 219 216 217 212 164 139 123 125 124 116 109 84 357 299 250 209 188 173 186 190 173 172 224 243 250 252 259
174 171 179 175 170 169 165 164 157 159 168 170 167 165 163 167 169 164 171 176 176 185 188 186 185 203 212 201 209 217 220 222 229 235 227 229 221 218 222 202 175 136 147 142 116 84 43 256 271 292 226 188 168 206 202 188 192 222 239 248 249 261
171 169 178 169 166 168 167 164 158 160 163 165 168 165 164 171 171 167 177 184 186 193 193 199 200 209 215 204 215 221 217 218 223 230 227 232 227 221 224 215 213 177 166 160 133 142 249 232 241 254 249 228 218 212 200 195 209 227 238 246 251 267
167 163 171 167 164 166 166 163 159 163 165 169 170 166 165 171 174 174 187 193 188 191 197 210 210 213 216 215 231 224 219 229 228 231 227 229 232 231 233 227 236 228 194 191 181 199 216 216 225 226 238 245 231 206 200 203 209 227 238 242 251 261
167 163 170 170 167 165 169 167 164 164 168 172 172 171 168 172 177 178 190 198 194 195 206 215 210 214 220 222 236 227 225 238 231 233 231 227 234 242 240 233 237 237 226 221 216 212 220 234 231 222 228 232 228 207 210 219 214 224 236 238 248 252
164 162 166 170 170 168 171 170 165 166 170 172 173 173 169 176 183 182 185 194 203 208 217 219 210 213 217 222 230 224 230 240 232 232 232 228 234 244 244 238 236 237 240 236 227 227 244 252 233 221 233 227 222 216 214 227 226 226 232 229 236 243
159 160 164 169 172 172 170 168 167 170 172 168 170 169 169 183 191 190 187 192 209 216 220 217 210 214 220 228 224 219 231 243 241 230 228 231 235 242 244 243 238 236 242 238 234 246 254 243 216 204 236 236 224 219 215 221 226 226 227 224 225 232
162 165 168 171 175 174 170 169 170 171 171 168 170 170 176 191 194 194 194 195 206 217 223 212 206 214 222 227 219 223 239 247 245 232 228 232 237 241 240 240 239 238 239 233 230 245 261 239 219 205 214 234 225 222 226 219 215 219 228 233 225 222
164 168 167 169 171 172 171 170 171 169 169 170 174 176 182 196 194 194 203 204 205 215 216 206 211 220 221 221 209 213 228 236 237 234 233 230 234 240 239 238 237 240 238 241 231 230 259 235 219 212 206 232 227 216 228 224 215 212 220 230 223 223
165 169 165 167 167 168 168 166 168 167 165 169 176 178 181 195 205 205 210 216 213 210 199 190 207 217 217 222 209 201 207 215 223 225 230 227 227 232 239 240 237 237 232 242 234 223 253 234 219 221 215 244 246 214 214 218 217 209 210 218 217 223
164 167 164 164 164 164 163 163 167 166 167 171 176 181 181 188 211 217 206 209 211 206 194 185 200 206 210 217 208 201 200 206 214 217 221 224 228 229 232 235 235 234 229 239 238 230 243 234 230 241 240 248 252 250 229 209 201 207 212 206 209 213
160 164 165 162 159 163 166 165 164 165 169 166 164 173 174 165 177 214 184 181 195 198 194 194 201 199 205 209 204 206 202 200 211 218 221 224 230 229 225 229 231 230 232 240 236 230 227 224 228 238 258 237 227 295 285 197 177 197 202 179 192 200
160 161 161 160 156 155 161 163 163 164 159 145 142 146 153 152 147 163 157 149 167 179 182 195 206 190 192 201 199 205 203 200 213 221 222 226 227 225 221 226 230 227 234 237 228 228 221 232 234 226 262 243 237 313 326 189 65 106 175 174 180 181
163 159 153 157 155 149 154 158 154 148 137 125 116 109 118 135 138 155 158 144 140 144 161 175 187 173 178 192 190 193 200 202 212 216 217 221 220 219 219 222 227 221 226 227 219 230 230 230 230 223 251 245 250 293 269 250 24 67 149 175 180 171
166 157 147 152 155 150 148 144 139 133 124 111 95 86 89 94 102 123 127 127 118 106 115 130 114 102 134 174 183 194 209 210 211 212 210 210 209 211 214 218 226 223 222 223 219 235 240 227 223 226 231 225 236 263 257 236 62 73 139 162 164 167
164 153 143 144 147 146 140 134 129 119 112 102 98 109 112 113 122 111 95 110 107 89 80 79 78 77 88 125 176 188 213 217 210 207 204 200 198 200 210 215 224 232 233 232 230 243 249 226 213 214 214 217 224 252 268 247 206 277 148 138 139 162
159 151 139 134 135 134 132 128 118 107 105 105 121 125 113 109 125 121 108 95 91 98 112 105 91 86 86 89 82 99 174 209 203 199 201 198 194 200 215 216 222 238 249 243 228 237 246 229 212 208 214 228 231 246 258 239 228 246 208 123 159 176
156 149 135 127 125 125 124 120 113 114 121 127 138 132 132 157 165 151 135 123 118 132 144 129 123 119 101 110 124 109 130 156 163 185 203 197 196 201 203 211 216 211 220 229 219 220 233 235 226 216 219 237 237 247 251 225 220 226 158 76 149 148
153 144 131 129 128 121 117 117 114 115 121 126 132 140 171 186 192 183 162 163 152 128 117 123 121 118 111 110 127 119 117 105 104 136 152 174 193 199 189 191 186 172 182 192 191 197 218 231 229 222 223 241 234 232 241 232 213 195 113 67 83 112
148 139 133 135 134 126 124 125 116 108 110 118 136 159 190 177 161 149 140 159 144 113 94 88 78 88 125 134 115 100 105 105 91 92 99 117 167 180 180 175 166 168 172 164 160 173 197 186 176 197 201 224 232 201 203 220 180 134 99 86 63 92
143 137 135 135 135 132 132 128 121 126 144 162 174 177 174 140 114 104 110 139 138 120 116 113 101 112 177 176 131 109 89 97 94 91 87 86 95 108 118 141 161 170 164 148 146 155 168 179 182 193 194 201 216 183 185 224 163 110 79 87 78 86
142 140 139 139 138 137 137 134 136 154 168 184 194 174 144 128 112 109 144 163 122 114 113 121 127 148 158 137 146 124 79 50 100 114 100 88 91 109 111 98 98 121 148 160 155 151 157 180 195 209 216 210 183 152 130 153 139 104 76 87 83 81
144 145 145 145 143 142 144 140 142 162 178 194 189 147 137 131 112 138 194 117 122 129 120 124 135 150 134 129 136 123 103 44 53 89 97 105 103 97 89 85 98 103 115 142 149 137 123 140 203 212 224 229 173 129 133 127 126 113 89 82 76 80
147 148 149 148 144 145 144 136 136 154 172 172 160 165 175 157 157 198 203 179 168 147 131 135 111 94 119 125 119 114 114 90 54 58 64 93 107 103 97 101 109 98 97 113 120 123 117 115 149 154 199 223 215 166 147 119 109 122 106 92 81 80
151 153 152 145 146 153 147 141 142 141 149 171 199 210 192 179 198 205 195 163 132 110 119 120 88 75 79 95 104 113 124 117 96 80 62 62 106 124 127 121 116 109 103 104 102 112 113 114 130 114 108 161 180 197 179 153 139 136 119 111 100 84
155 160 159 151 160 172 166 162 153 144 175 211 218 220 202 196 203 187 153 132 145 154 147 132 121 116 92 74 68 91 120 122 116 118 106 90 107 119 115 110 113 112 102 100 102 106 112 113 118 115 114 121 124 147 163 169 155 131 112 118 115 99
158 165 170 167 172 180 177 175 162 160 197 219 223 221 206 203 193 167 159 173 183 175 155 153 151 144 129 114 84 74 108 125 127 125 114 101 94 99 109 110 112 111 105 106 107 104 108 111 108 112 117 109 92 101 121 120 130 133 121 122 122 112
172 178 183 176 172 176 178 178 171 177 204 219 219 209 201 204 188 170 179 185 181 163 171 194 185 171 154 142 140 137 121 120 126 123 114 106 101 101 111 117 120 121 117 113 112 109 103 98 96 99 99 90 79 80 96 104 108 120 123 122 121 119
177 181 182 175 168 172 175 177 178 187 208 216 212 205 204 203 185 175 174 165 171 179 197 218 209 186 168 155 155 155 139 128 132 131 124 115 107 108 111 118 124 123 119 112 112 116 110 101 94 89 88 83 77 78 82 85 93 110 121 122 119 120
173 176 180 176 169 172 177 180 184 193 208 210 207 206 204 195 180 180 173 171 190 192 194 213 201 163 153 157 154 143 140 140 139 139 132 116 101 104 111 116 120 121 122 117 115 118 116 112 105 99 100 96 92 90 84 77 83 101 110 113 117 123
175 177 182 180 174 175 180 184 187 193 200 201 200 198 196 191 181 185 184 180 189 188 198 214 199 166 160 169 163 148 144 137 132 137 135 125 118 115 116 118 118 117 116 110 114 119 119 119 112 105 104 105 105 104 102 99 97 102 106 112 120 127
175 176 181 183 180 180 183 186 187 190 191 192 193 186 188 192 182 190 192 178 185 198 209 217 199 180 178 177 166 157 151 140 131 128 127 130 133 129 121 115 109 105 104 100 102 108 113 116 112 103 97 101 110 112 114 117 115 115 113 113 121 124
176 178 183 185 184 183 183 184 184 187 186 186 186 178 184 195 188 190 187 176 192 206 211 215 205 194 188 175 164 163 161 153 141 131 128 132 133 130 123 119 115 112 111 109 107 107 111 114 111 106 101 101 109 113 121 127 122 119 114 116 135 117
178 181 185 187 186 183 181 182 182 182 182 184 182 176 185 197 192 188 183 182 196 203 211 218 209 197 188 177 176 178 171 155 141 127 122 120 120 120 118 115 115 113 111 112 112 110 110 114 112 108 105 104 104 101 107 124 129 124 117 119 138 102